{"data":{"norad_id":63564,"epoch":"2026-05-25T03:35:37.241376Z","epoch_age_seconds":55885,"freshness":"FRESH","line1":"1 63564U 25075S   26145.14973659  .00016000  00000+0  58914-3 0  9991","line2":"2 63564  43.0009 198.5990 0001456 270.9489  89.1196 15.27610099 63630","mean_motion":15.27610099,"eccentricity":0.0001456,"inclination_deg":43.0009,"raan_deg":198.599,"arg_perigee_deg":270.9489,"mean_anomaly_deg":89.1196,"bstar":0.00058914,"rev_number":6363,"period_min":94.264891345157,"perigee_km":481.95999471216,"apogee_km":483.95794585871,"semimajor_km":6861.0959702854,"source":"CELESTRAK","updated_at":"2026-05-25T13:38:20.043991Z"}}